Temperature
22 22 21 20 20 20 19 19 19 19 19 18 18 18 18 18 18 18 18 18 18 18 18 18 18 18 18 18 17 18 18 18 18 18 18 18 18 18 18 18 18 18 17
23 21 21 20 20 20 20 20 20 19 19 19 19 19 18 18 18 18 18 18 18 18 18 18 18 18 18 17 17 18 18 18 18 18 18 19 19 18 18 18 18 17 17
23 22 21 20 20 20 20 20 20 20 20 19 19 18 18 18 18 18 18 18 18 18 18 18 18 18 17 18 18 18 17 17 17 17 18 19 19 18 18 18 17 17 17
23 22 21 21 21 20 20 20 20 20 20 19 19 19 18 18 18 18 18 18 18 18 18 18 18 18 18 18 17 18 17 17 17 17 17 17 18 18 18 18 18 17 17
24 23 22 21 21 20 20 20 20 20 20 19 19 19 18 18 18 18 18 18 18 18 18 18 18 18 18 18 18 17 17 17 17 17 17 17 17 17 18 18 18 18 17
24 23 22 21 21 21 20 20 20 20 20 20 19 19 19 18 18 18 18 18 18 18 18 18 18 18 18 18 18 17 17 17 17 17 17 17 17 18 18 18 18 18 17
24 23 22 21 21 20 20 20 20 20 20 20 20 19 19 19 18 18 18 18 18 18 18 18 18 18 18 18 17 17 17 17 17 17 17 17 17 17 17 17 18 17 17
24 23 22 21 21 20 20 20 20 20 20 20 20 19 19 19 18 18 18 18 18 18 18 18 18 18 18 18 17 17 17 17 17 17 17 17 17 17 17 17 17 17 18
24 23 23 22 21 21 20 20 20 20 20 20 20 19 19 19 19 18 18 18 18 18 18 18 18 18 18 18 17 17 17 17 17 17 17 17 17 17 17 17 17 17 18
24 23 22 22 21 21 20 20 20 19 19 19 19 19 19 19 19 18 18 18 18 18 18 18 18 18 18 18 18 17 17 17 17 17 17 17 17 17 17 17 17 17 17
24 23 22 21 21 21 20 20 20 19 19 19 19 19 19 19 19 19 19 19 19 18 18 18 18 18 18 18 17 17 17 17 17 17 17 17 17 17 17 17 16 16 16
23 22 22 21 20 20 20 20 20 19 19 19 19 19 19 19 19 19 19 19 19 18 18 18 18 18 18 17 17 17 17 17 17 17 17 17 17 16 16 16 16 16 16
22 22 21 21 20 20 20 20 19 19 19 19 19 19 18 18 18 18 18 18 18 18 18 18 18 18 18 17 17 17 17 17 17 17 17 17 16 16 16 16 16 16 16
22 21 21 20 20 19 19 19 19 19 19 19 19 18 18 18 18 18 18 18 18 18 18 18 18 18 17 17 17 17 17 17 16 16 16 16 16 16 16 16 16 16 16
21 21 20 19 19 19 19 19 19 19 18 18 18 18 18 18 18 18 18 18 18 18 18 18 18 17 17 17 17 17 17 16 16 16 16 16 16 16 16 16 16 16 15
21 20 19 19 18 18 18 18 18 18 18 18 18 18 18 18 18 18 18 17 17 17 17 17 17 17 17 17 17 17 16 16 16 16 16 16 16 16 16 16 16 15 15
20 20 19 19 18 18 18 18 18 18 18 17 17 17 17 17 17 17 17 17 17 17 17 17 17 17 17 17 17 17 16 16 16 16 16 15 15 15 15 15 15 15 15
20 19 19 18 18 18 18 18 17 18 17 17 17 17 17 17 17 17 16 16 17 17 17 17 17 17 17 17 17 17 16 16 16 15 15 15 15 15 15 15 14 14 14
19 19 19 18 18 17 17 17 17 17 17 17 17 17 17 17 16 16 16 16 16 16 16 16 16 16 16 16 16 16 16 15 15 15 15 15 15 15 15 14 14 14 14
19 18 18 18 17 17 17 17 17 17 17 16 16 16 16 16 16 16 16 16 16 16 16 16 15 15 16 16 16 16 15 15 15 14 14 14 14 14 14 14 13 13 13
18 17 17 17 17 17 16 16 16 16 16 16 16 16 16 16 16 16 15 15 15 15 15 15 15 15 15 15 15 15 15 15 14 14 14 14 14 14 14 13 13 13 13
17 17 17 17 16 16 16 16 16 16 16 15 15 15 16 15 15 15 15 15 15 15 15 15 15 15 15 15 15 15 15 14 14 14 14 14 14 13 13 13 13 13 13
17 16 16 16 16 16 16 15 15 16 15 15 15 15 15 15 15 15 15 14 14 14 14 14 14 14 14 14 14 14 14 14 13 13 13 13 13 13 13 13 12 12 12
16 16 16 15 15 15 15 15 15 15 15 15 15 15 15 15 15 14 14 14 14 14 14 14 14 14 14 14 14 13 13 13 13 13 12 12 12 12 12 12 12 12 12
16 15 15 15 15 15 15 15 15 15 15 15 15 15 15 14 14 14 14 14 14 14 14 13 13 13 13 13 13 13 13 13 12 12 12 12 12 12 12 11 11 11 11
15 15 15 15 14 14 14 14 14 14 14 14 14 14 14 14 14 14 14 14 13 13 13 13 13 13 13 13 13 13 12 12 12 12 11 12 12 11 11 11 11 11 11
Wind_Speed
9 10 11 11 10 10 9 9 9 8 7 5 5 5 5 4 3 4 4 4 4 4 3 2 2 2 2 1 2 1 1 1 0 1 1 1 1 1 2 2 1 2 2
9 10 11 11 11 11 11 10 10 9 8 7 5 5 4 4 4 3 4 5 5 5 5 4 3 3 3 3 3 2 2 1 1 2 2 2 3 2 2 2 2 1 2
10 11 11 12 12 12 12 10 10 10 9 8 6 5 4 4 4 4 4 5 5 5 4 4 4 4 4 3 3 3 3 2 2 2 3 2 1 0 2 2 2 2 1
10 10 12 12 12 12 11 11 10 10 9 9 8 8 6 5 5 4 4 4 5 5 5 5 5 4 4 3 5 4 3 3 3 3 3 3 2 2 1 2 3 2 2
9 10 11 11 11 11 11 10 10 9 9 9 9 9 8 6 5 5 5 5 5 5 5 5 5 5 5 4 4 3 4 4 4 3 2 3 3 5 4 3 2 2 2
8 9 9 9 9 10 10 10 10 10 10 10 10 10 9 8 7 6 6 5 5 5 6 6 5 5 5 5 5 5 6 5 4 4 4 4 4 4 4 4 4 3 2
7 8 9 8 8 9 10 10 11 10 10 10 10 11 11 10 9 8 7 6 5 5 6 6 5 5 5 5 5 6 5 5 5 5 5 4 5 4 4 4 4 4 3
6 7 8 8 8 9 10 10 10 10 11 10 10 10 10 9 8 9 8 7 6 5 5 6 6 6 6 7 6 6 6 5 6 6 5 5 5 4 5 5 4 4 4
5 6 7 7 8 8 9 9 9 10 10 10 10 10 10 10 9 8 9 8 6 6 6 6 7 7 7 7 7 6 6 5 6 7 7 6 5 5 5 5 5 5 5
4 5 5 6 6 6 7 8 8 9 9 10 9 9 10 10 10 9 9 8 7 7 7 7 7 7 7 7 7 7 6 7 7 6 6 6 6 5 5 5 5 6 6
2 3 4 4 5 5 5 6 6 7 8 8 8 9 9 9 10 9 10 9 8 8 8 8 8 8 8 8 8 8 7 8 8 7 7 7 7 6 5 5 6 6 6
1 3 4 4 4 4 4 4 5 5 6 7 8 9 9 9 10 10 10 10 10 10 9 9 9 9 9 8 9 9 8 9 8 8 7 8 6 7 7 6 7 6 5
1 2 3 3 3 3 3 3 4 4 5 5 7 8 8 9 10 10 10 10 10 10 9 9 10 9 9 9 9 9 9 8 8 8 8 7 7 7 6 7 7 6 6
1 1 2 2 2 2 3 3 3 4 4 5 6 6 7 8 9 9 9 9 9 10 10 10 10 9 9 9 9 9 8 9 8 8 8 8 8 8 7 7 7 6 6
0 1 1 1 2 2 2 3 3 4 4 5 6 6 7 7 8 8 9 9 9 10 9 10 9 10 9 8 9 8 8 8 8 8 7 7 6 6 6 6 6 6 6
1 1 1 1 1 2 2 3 3 4 4 5 5 5 5 6 7 8 8 8 9 9 8 9 9 9 8 5 7 8 8 7 7 7 7 7 7 5 5 5 5 6 7
2 2 2 2 2 2 2 3 3 4 4 5 5 4 5 5 6 7 7 8 8 8 8 8 8 7 6 5 6 8 7 7 6 6 6 6 4 4 5 5 6 6 5
3 3 3 2 2 2 2 2 2 3 4 4 4 4 5 5 5 5 6 6 6 7 6 6 6 6 5 5 6 7 7 6 6 5 5 5 4 3 3 4 4 4 4
3 3 3 2 2 2 1 2 2 2 4 4 4 4 4 4 5 5 6 6 5 5 6 5 5 5 4 4 5 5 5 5 5 5 5 5 5 2 3 4 4 3 3
2 3 2 1 1 1 1 1 2 2 3 4 4 4 4 4 5 5 5 5 4 5 5 4 4 5 4 4 5 6 5 5 5 4 4 4 3 3 4 5 4 4 3
2 2 1 1 1 1 1 2 2 2 3 3 3 3 4 4 4 4 4 4 4 4 4 4 4 4 4 5 6 7 5 5 5 4 4 3 5 4 4 4 4 3 3
1 1 1 1 1 1 1 2 2 3 2 2 2 2 2 2 2 2 3 3 3 4 4 4 3 3 2 2 4 6 6 4 4 4 3 2 5 5 4 3 2 2 3
1 1 1 1 1 1 1 2 2 2 1 1 1 1 1 1 1 2 2 3 3 4 3 3 3 2 2 2 4 5 5 4 3 3 2 3 5 5 4 4 4 4 3
1 1 1 1 1 1 2 2 2 1 1 1 1 1 1 1 0 1 1 2 2 3 3 3 2 2 2 2 2 3 3 4 4 2 3 5 6 5 4 4 4 3 3
1 1 1 1 2 2 2 2 2 1 1 1 1 1 1 1 0 0 1 1 1 1 2 2 3 2 2 1 1 2 2 2 2 2 2 3 3 3 3 3 3 2 2
1 1 1 1 2 2 2 2 1 2 2 2 1 1 1 1 1 1 2 5 3 4 3 1 1 0 2 2 2 1 1 2 3 3 3 3 4 4 4 3 3 3 3
Wind_Direction
191 188 188 187 186 188 191 194 197 190 192 192 195 196 198 194 192 189 184 195 210 207 214 221 181 217 212 219 223 211 207 219 215 274 265 216 192 191 182 202 216 183 199
190 189 189 189 192 192 197 197 197 194 196 196 200 203 207 204 201 204 191 203 209 213 205 207 217 213 211 211 212 210 251 252 227 268 276 237 185 178 164 183 191 223 211
196 191 193 195 197 199 199 198 198 196 197 197 195 197 196 207 198 197 198 205 210 214 222 210 223 224 232 220 221 220 226 249 244 252 273 283 280 274 179 188 200 211 258
202 198 196 199 202 202 199 200 200 199 196 197 201 203 203 205 207 202 202 204 212 217 219 218 224 233 239 229 231 218 233 238 251 241 255 276 306 279 244 206 190 204 236
202 199 200 200 202 200 199 197 197 198 197 199 202 207 216 215 211 205 206 216 214 218 221 218 224 230 238 237 242 235 237 237 245 254 245 239 241 247 263 265 255 238 238
197 196 196 195 198 198 199 196 193 197 198 201 206 210 217 218 218 218 218 217 219 215 215 216 219 225 233 228 229 230 228 239 248 253 248 246 249 247 253 258 250 252 245
192 192 192 192 196 197 199 198 194 198 201 203 208 211 215 217 221 227 225 226 226 216 212 217 215 223 226 231 232 231 239 234 237 240 242 248 253 251 252 256 264 271 256
187 190 191 193 197 200 199 198 198 200 202 204 208 212 214 218 222 224 234 228 230 227 214 215 218 221 226 233 232 237 232 228 234 241 244 245 249 248 245 247 257 263 257
180 187 190 192 196 199 199 198 197 201 203 205 207 213 216 222 224 223 226 234 231 228 218 218 220 222 225 232 236 240 239 237 240 240 233 238 242 243 245 243 246 257 266
170 180 186 188 192 195 197 199 200 204 206 206 211 214 218 222 226 229 228 231 232 232 227 221 222 224 224 226 232 238 237 239 243 248 251 248 247 242 242 241 240 245 255
162 170 171 176 182 187 191 196 200 205 208 212 214 222 222 222 224 226 230 229 230 229 229 229 228 228 228 228 230 237 237 239 243 246 243 244 252 247 243 238 238 241 243
131 155 158 161 173 185 192 192 199 209 217 219 219 222 225 226 226 228 230 230 230 231 229 230 230 232 231 229 231 235 235 238 242 245 247 248 245 242 248 244 243 242 245
122 149 152 163 183 196 201 201 206 213 221 221 223 223 226 227 229 232 232 231 231 233 234 231 232 235 234 231 231 235 237 240 243 244 243 244 245 245 244 244 243 243 243
149 145 151 169 188 203 202 207 219 223 225 227 228 230 233 234 234 235 236 235 233 232 233 234 233 234 234 233 232 235 239 241 242 242 242 242 240 240 240 241 241 243 247
213 183 166 170 187 203 217 220 227 230 233 234 238 239 242 241 239 235 235 236 236 236 234 234 234 234 234 235 232 234 237 240 242 240 243 246 248 257 254 254 246 244 246
257 267 223 200 210 228 236 237 241 242 238 240 247 249 249 246 243 240 236 235 236 238 236 233 233 235 237 226 226 233 235 237 239 239 240 243 241 242 236 249 254 252 247
261 284 264 247 242 240 238 244 248 247 244 246 252 255 256 255 252 247 240 238 236 234 235 236 232 232 233 212 215 222 230 235 236 237 239 247 245 240 251 234 228 237 241
278 284 274 256 252 247 245 253 250 246 247 250 256 258 256 255 251 244 242 240 237 233 230 232 231 230 223 194 201 209 223 233 233 234 233 238 244 244 241 246 241 242 244
294 293 282 269 276 267 259 258 256 249 248 250 252 254 252 251 249 243 241 240 238 233 228 225 229 230 215 174 184 198 221 221 229 230 229 226 228 211 229 228 233 240 244
313 296 286 277 272 289 280 264 268 263 260 260 257 254 249 246 246 247 243 240 234 231 229 223 225 219 214 175 179 200 219 219 224 221 221 208 208 203 220 220 221 232 241
308 308 310 299 302 293 277 271 275 276 284 279 263 258 253 246 244 245 238 232 231 226 221 216 221 216 213 186 185 202 220 221 222 223 220 202 160 183 219 232 227 232 238
304 313 321 313 311 271 247 271 285 292 297 282 257 252 258 262 243 228 230 226 219 212 212 207 217 223 213 201 190 194 215 234 222 224 223 191 161 178 204 214 196 220 228
297 275 267 276 288 265 257 271 288 291 295 288 252 238 233 247 226 205 208 208 211 217 211 209 208 210 209 185 171 179 200 215 221 229 178 177 178 178 189 194 202 213 221
300 260 246 263 294 292 279 282 286 277 252 246 243 228 205 211 221 250 243 222 210 215 208 212 228 222 206 196 187 183 181 182 190 185 166 179 191 193 200 201 207 220 237
324 297 261 262 282 290 283 280 280 265 248 242 234 219 200 177 159 243 352 293 251 249 239 230 231 232 216 134 41 212 210 205 180 177 209 220 214 210 213 218 221 219 222
291 263 268 281 281 271 270 269 252 239 234 233 228 210 196 183 187 138 86 51 36 70 87 62 252 246 110 111 98 133 203 205 199 192 208 221 221 219 220 222 222 220 224
Height
1527 1529 1531 1533 1535 1536 1537 1539 1540 1542 1543 1545 1546 1547 1549 1550 1551 1552 1552 1553 1554 1555 1555 1557 1557 1557 1558 1558 1558 1559 1559 1559 1559 1559 1559 1559 1559 1558 1558 1558 1559 1559 1559
1525 1527 1529 1531 1532 1534 1535 1537 1538 1540 1542 1543 1545 1547 1548 1549 1550 1551 1551 1552 1553 1554 1555 1555 1556 1556 1556 1556 1557 1557 1558 1558 1558 1558 1558 1558 1559 1557 1557 1557 1557 1558 1558
1522 1524 1526 1528 1530 1531 1532 1535 1536 1538 1540 1542 1544 1546 1547 1548 1549 1550 1550 1551 1552 1553 1553 1554 1554 1555 1555 1556 1556 1556 1556 1557 1557 1557 1558 1558 1556 1557 1557 1556 1556 1556 1556
1518 1521 1523 1525 1527 1529 1531 1533 1534 1536 1538 1540 1542 1544 1545 1547 1548 1549 1549 1550 1550 1551 1552 1552 1552 1553 1554 1554 1554 1555 1555 1555 1556 1556 1556 1556 1556 1556 1555 1555 1555 1554 1554
1515 1517 1519 1522 1524 1526 1529 1530 1532 1534 1535 1537 1539 1541 1543 1545 1546 1547 1547 1548 1549 1549 1550 1550 1550 1551 1552 1552 1552 1553 1553 1554 1554 1554 1554 1554 1554 1554 1554 1553 1554 1553 1553
1512 1515 1517 1519 1521 1524 1526 1528 1529 1531 1533 1535 1537 1538 1540 1542 1543 1544 1545 1546 1547 1547 1548 1548 1548 1549 1550 1550 1550 1550 1551 1551 1551 1552 1552 1553 1553 1552 1552 1552 1551 1551 1551
1510 1512 1515 1516 1518 1521 1523 1525 1526 1528 1530 1532 1534 1535 1537 1539 1540 1542 1543 1543 1545 1545 1545 1546 1546 1546 1547 1547 1548 1548 1549 1549 1549 1549 1550 1550 1550 1550 1550 1550 1549 1549 1549
1507 1510 1512 1514 1516 1518 1520 1522 1523 1525 1527 1528 1530 1532 1534 1536 1537 1538 1540 1541 1541 1542 1543 1543 1543 1543 1544 1545 1545 1546 1546 1546 1546 1547 1547 1547 1547 1548 1548 1548 1547 1547 1546
1506 1508 1510 1512 1513 1515 1517 1519 1520 1522 1523 1525 1527 1529 1531 1532 1534 1535 1536 1537 1538 1539 1539 1540 1540 1541 1541 1542 1542 1543 1543 1543 1544 1544 1544 1544 1544 1544 1544 1545 1545 1545 1544
1505 1506 1508 1510 1511 1513 1514 1516 1518 1519 1521 1522 1524 1526 1527 1528 1530 1531 1532 1533 1534 1535 1536 1536 1537 1538 1538 1538 1539 1540 1540 1540 1540 1540 1541 1541 1541 1542 1541 1541 1541 1541 1542
1504 1505 1506 1508 1510 1511 1512 1514 1515 1516 1518 1519 1521 1522 1524 1525 1526 1527 1528 1529 1530 1531 1532 1533 1534 1534 1535 1535 1535 1536 1536 1537 1537 1537 1537 1537 1538 1538 1538 1538 1538 1538 1538
1504 1505 1506 1507 1508 1509 1510 1511 1512 1514 1515 1516 1517 1519 1520 1521 1522 1523 1524 1525 1526 1527 1528 1529 1530 1530 1531 1531 1531 1532 1532 1533 1533 1534 1534 1534 1535 1534 1535 1535 1535 1535 1534
1503 1504 1504 1505 1506 1507 1508 1509 1510 1511 1512 1513 1514 1515 1516 1517 1518 1519 1520 1521 1522 1523 1524 1525 1525 1526 1526 1527 1527 1528 1528 1529 1529 1529 1530 1530 1530 1530 1530 1530 1531 1531 1531
1502 1502 1503 1503 1504 1505 1506 1506 1507 1508 1509 1510 1511 1511 1512 1513 1513 1514 1515 1516 1517 1518 1519 1520 1520 1521 1522 1522 1522 1523 1524 1524 1525 1525 1526 1526 1526 1525 1525 1526 1526 1526 1526
1501 1501 1501 1502 1502 1502 1503 1504 1505 1505 1506 1506 1507 1507 1508 1508 1509 1510 1511 1512 1513 1513 1514 1515 1515 1516 1517 1517 1518 1518 1519 1519 1520 1520 1521 1522 1522 1522 1522 1522 1522 1522 1522
1499 1499 1500 1500 1500 1500 1501 1501 1501 1502 1502 1502 1503 1503 1504 1504 1505 1505 1506 1507 1508 1509 1509 1510 1510 1511 1512 1512 1513 1513 1514 1514 1515 1516 1516 1517 1517 1517 1517 1517 1517 1517 1517
1497 1498 1497 1497 1498 1498 1498 1498 1498 1499 1499 1499 1499 1499 1499 1500 1500 1501 1502 1502 1503 1504 1504 1505 1506 1506 1506 1507 1508 1508 1509 1510 1510 1511 1512 1512 1513 1513 1513 1512 1512 1512 1512
1496 1496 1496 1495 1495 1495 1495 1495 1496 1495 1495 1495 1495 1496 1496 1496 1496 1497 1497 1498 1498 1499 1499 1500 1501 1501 1502 1502 1503 1504 1505 1505 1506 1507 1507 1508 1508 1509 1508 1508 1508 1508 1508
1494 1494 1494 1493 1493 1493 1493 1492 1492 1492 1492 1492 1492 1492 1492 1492 1493 1493 1493 1494 1494 1494 1495 1496 1496 1497 1498 1498 1499 1500 1500 1501 1502 1503 1503 1504 1504 1504 1504 1504 1504 1504 1504
1492 1491 1491 1491 1490 1490 1490 1490 1490 1490 1489 1489 1489 1489 1489 1489 1489 1489 1490 1490 1490 1491 1492 1492 1493 1493 1494 1495 1496 1496 1497 1497 1498 1499 1499 1500 1500 1501 1501 1501 1501 1500 1501
1489 1489 1488 1488 1488 1488 1487 1487 1487 1487 1486 1486 1485 1485 1485 1485 1485 1485 1486 1486 1487 1487 1488 1488 1489 1490 1491 1492 1492 1493 1493 1494 1495 1496 1496 1497 1497 1497 1498 1498 1497 1497 1498
1487 1486 1486 1486 1486 1485 1485 1485 1484 1484 1483 1482 1482 1482 1482 1482 1482 1482 1482 1483 1483 1484 1484 1485 1486 1487 1488 1489 1489 1490 1490 1491 1491 1493 1493 1494 1494 1494 1495 1495 1494 1494 1495
1485 1485 1484 1484 1484 1484 1483 1483 1482 1482 1481 1480 1480 1480 1479 1479 1479 1479 1479 1480 1481 1482 1482 1483 1483 1484 1485 1486 1486 1487 1488 1487 1488 1490 1490 1491 1492 1492 1492 1492 1492 1492 1492
1484 1483 1483 1482 1482 1482 1481 1481 1480 1480 1479 1478 1478 1478 1477 1477 1477 1477 1478 1478 1479 1480 1480 1481 1482 1482 1483 1484 1484 1484 1485 1485 1486 1486 1487 1488 1489 1489 1489 1490 1490 1490 1490
1482 1482 1481 1481 1480 1480 1479 1479 1479 1478 1477 1477 1476 1476 1476 1476 1476 1476 1477 1477 1477 1478 1478 1479 1479 1480 1481 1481 1482 1482 1482 1483 1483 1483 1484 1486 1486 1486 1486 1487 1488 1487 1488
1481 1480 1480 1479 1478 1478 1477 1477 1477 1476 1476 1475 1475 1475 1475 1475 1475 1475 1475 1475 1476 1476 1476 1477 1477 1478 1478 1479 1479 1479 1480 1481 1481 1481 1482 1483 1483 1483 1484 1484 1485 1485 1485